Regional Weather Roundup
Issued by NWS

Home | Current Version | Previous Version | Text Only | Print | Product List | Glossary On
Versions: 1 2 3 4 5 6 7 8 9 10 11 12 13 14 15 16 17 18 19 20 21 22 23 24 25 26 27
000
ASUS45 KPSR 261710
RWRAZ

ARIZONA HOURLY REGIONAL WEATHER ROUNDUP
NATIONAL WEATHER SERVICE PHOENIX AZ
1000 AM MST THU MAY 26 2016

NOTE: FAIR INDICATES FEW OR NO CLOUDS BELOW 12,000 FEET WITH NO
SIGNIFICANT WEATHER AND/OR OBSTRUCTIONS TO VISIBILITY.

AZZ001>003-036-261800-
NORTHWEST ARIZONA

CITY           SKY/WX    TMP DP  RH WIND       PRES   REMARKS
BULLHEAD CITY  SUNNY     75  39  27 SW8       29.94F
KINGMAN        SUNNY     69  30  23 W9        29.99S
$$

AZZ004>008-015-016-018-261800-
NORTH CENTRAL ARIZONA

CITY           SKY/WX    TMP DP  RH WIND       PRES   REMARKS
GRAND CANYON   PTSUNNY   56  26  31 VRB7      30.05F
WILLIAMS       SUNNY     55  21  26 W13G18    30.14S
PRESCOTT       MOSUNNY   62  23  22 CALM      30.04S
FLAGSTAFF      PTSUNNY   50  22  33 NW8       30.07S
PAYSON         SUNNY     61  25  25 W12       30.07S
PAGE           PTSUNNY   67  28  23 VRB5      29.92S
$$

AZZ009>014-017-261800-
NORTHEAST ARIZONA

CITY           SKY/WX    TMP DP  RH WIND       PRES   REMARKS
WINSLOW        MOSUNNY   64  28  25 NW14      30.01S
SAINT JOHNS    MOSUNNY   60  17  18 W16G24    30.02S
WINDOW ROCK    MOSUNNY   58  18  21 SW14G24   30.02F
SHOW LOW       SUNNY     54  19  26 W9G20     30.08S
$$

AZZ023-261800-
GREATER PHOENIX AREA

CITY           SKY/WX    TMP DP  RH WIND       PRES   REMARKS
PHOENIX        MOSUNNY   74  36  25 SE3       29.93F
BUCKEYE        SUNNY     73  37  27 SW8       29.96F
GLENDALE       SUNNY     73  37  27 SW6       29.96S
LUKE AFB       SUNNY     74  39  28 VRB7      29.93S
DEER VALLEY    SUNNY     72  36  26 MISG      29.95S
SCOTTSDALE     SUNNY     73  35  25 W5        29.96F
MESA-GATEWAY   SUNNY     73  37  27 CALM      29.96S
CHANDLER       SUNNY     73  37  27 S6        29.95F
$$

AZZ027-028-261800-
SOUTHWEST MARICOPA COUNTY AND PINAL COUNTY

CITY           SKY/WX    TMP DP  RH WIND       PRES   REMARKS
CASA GRANDE    SUNNY     73  36  25 S5        29.96S
GILA BEND      SUNNY     75  38  25 SW6       29.93F
$$

AZZ503-504-507>509-261800-
SOUTHEAST ARIZONA

CITY           SKY/WX    TMP DP  RH WIND       PRES   REMARKS
TUCSON         SUNNY     70  27  20 CALM      30.00F
DAVIS-MONTHAN  SUNNY     70  28  20 VRB2      29.98F
RYAN FIELD     SUNNY     72  28  20 NW8       29.99F
NOGALES        SUNNY     69  21  16 MISG      30.02F
SIERRA VISTA   SUNNY     68  15  12 W16       30.04F
DOUGLAS        SUNNY    N/A N/A N/A SW12      30.00F
SAFFORD        SUNNY     72  21  14 NW9       29.96F
$$

AZZ020-021-025-026-031-261800-
SOUTHWEST ARIZONA

CITY           SKY/WX    TMP DP  RH WIND       PRES   REMARKS
YUMA           SUNNY     75  43  31 NW10      29.95S
$$

CAZ031-033-041-043-047-048-061-261800-
SOUTHERN CALIFORNIA

CITY           SKY/WX    TMP DP  RH WIND       PRES   REMARKS
DOWNTOWN L.A.  MOSUNNY   68  51  54 CALM      30.06F
L.A. AIRPORT   PTSUNNY   64  51  62 CALM      30.07S
SAN DIEGO      CLOUDY    64  52  64 S6        30.09F
BURBANK        MOSUNNY   63  48  58 SE5       30.06F
ONTARIO        MOSUNNY   63  46  54 W6        30.06F
RIVERSIDE      MOSUNNY   64  46  52 CALM      30.06F
PALM SPRINGS   SUNNY     72  41  32 W10       29.95S
EL CENTRO NAS  SUNNY     78  39  24 NW10      29.95F
IMPERIAL       SUNNY     78  42  27 W8        29.93S
BLYTHE         SUNNY     76  42  29 CALM      29.93S
NEEDLES        SUNNY     78  39  24 CALM      29.92S
$$

NVZ020-UTZ003-261800-
SOUTHERN NEVADA-UTAH

CITY           SKY/WX    TMP DP  RH WIND       PRES   REMARKS
LAS VEGAS      MOSUNNY   73  35  25 SW3       29.91S
SALT LAKE CITY MOSUNNY   64  42  44 N3        30.00F
$$

NMZ009-TXZ055-261800-
NEW MEXICO-WEST TEXAS

CITY           SKY/WX    TMP DP  RH WIND       PRES   REMARKS
ALBUQUERQUE    MOSUNNY   67  19  16 S8        29.95F
EL PASO        MOSUNNY   77  32  19 W14G26    29.95F
$$


........................KEY........................
SKY/WX - SKY CONDITION/WEATHER
TMP    - TEMPERATURE IN FAHRENHEIT
DP     - DEW POINT IN FAHRENHEIT
RH     - RELATIVE HUMIDITY IN PERCENT
WIND   - DIRECTION AND SPEED IN MILES PER HOUR (MPH)
VRB    - VARIABLE WIND DIRECTION
PRES   - MEAN SEA LEVEL PRESSURE IN INCHES OF MERCURY
         F - FALLING PRESSURE   R - RISING PRESSURE
         S - STEADY PRESSURE
VSB    - VISIBILITY IN MILES
HX     - HEAT INDEX IN FAHRENHEIT
WCI    - WIND CHILL INDEX IN FAHRENHEIT
TC     - TEMPERATURE IN CELSIUS WHICH IS ALSO KNOWN AS
         TEMPERATURE IN CENTIGRADE
AFB    - AIR FORCE BASE
         LUKE AFB IS LUKE AIR FORCE BASE
         DAVIS-MONTHAN IS DAVIS-MONTHAN AIR FORCE BASE
NAS    - NAVAL AIR STATION
         EL CENTRO NAS IS EL CENTRO NAVAL AIR STATION
N/A    - NOT AVAILABLE





USA.gov is the U.S. government's official web portal to all federal, state and local government web resources and services.